カタログに戻る

COSMOS 2491 DEB

運用中PO
NORAD 44912·DEBRIS·🇷🇺 Russia

打ち上げ Dec 25, 2013 から Plesetsk Cosmodrome

Loading…

次のパス (今後24時間)

TLE

最新Source: Space-Track

元期: Sep 14, 2026, 03:21 UTC

1 44912U 13076F   26257.13979420  .00005802  00000-0  23543-1 0  9997
2 44912  82.4398  45.0503 0207800 261.8416  95.9068 12.79142395309268

AllMySatでCOSMOS 2491 DEBをリアルタイム追跡

Download on the App Store